TJS-7

Last updated on Fri Jul 11 2025 00:02:46 GMT+0000 (Coordinated Universal Time)

1 49115U 21077A 25191.58645384 -.00000112 00000+0 00000+0 0 9991 2 49115 0.4784 88.3173 0001780 54.0318 258.0908 1.00271622 14392
UTC large
Height (km)
Speed (km/s)
/
Latitude / Longitude
Inclination (degrees)
Orbital Period (minutes)
Azimuth
Elevation
Range (km)
Doppler Factor

Next 0 passes for location: London (51.5072 / 0.1276)

Sorry there are no passes over London.